Regional Weather Roundup
Issued by NWS Cleveland, OH

Home | Current Version | Previous Version | Graphics & Text | Print | Product List | Glossary On
Versions: 1 2 3 4 5 6 7 8 9 10 11 12 13 14 15 16 17 18 19 20 21 22 23 24 25 26 27 28 29 30 31 32 33 34 35 36 37 38 39 40 41 42 43 44 45 46 47 48 49 50
000
ASUS41 KCLE 020910
RWRCLE
OHIO REGIONAL WEATHER ROUNDUP
NATIONAL WEATHER SERVICE CLEVELAND, OH
500 AM EDT SUN AUG 02 2015

NOTE: "FAIR" INDICATES FEW OR NO CLOUDS BELOW 12,000 FEET WITH NO
SIGNIFICANT WEATHER AND/OR OBSTRUCTIONS TO VISIBILITY.

OHZ001>008-015>018-024>027-034-035-043-044-021000-
   NORTHWEST OHIO

CITY           SKY/WX    TMP DP  RH WIND       PRES   REMARKS
DEFIANCE       CLEAR     66  60  81 S5        29.91S
FINDLAY        CLEAR     68  59  73 SW8       29.91F
TOLEDO EXPRESS CLEAR     67  59  75 SW8       29.89F
TOLEDO EXEC    CLEAR     66  59  78 SW6       29.90F
LIMA           CLEAR     67  58  72 SW7       29.94F
$$

OHZ009>014-019>023-028>033-038-089-021000-
   NORTHEAST OHIO

CITY           SKY/WX    TMP DP  RH WIND       PRES   REMARKS
CLE-HOPKINS    MOCLDY    68  55  63 SW6       29.93S
CLE-LAKEFRONT  MOCLDY    71  55  56 S5        29.89F
CUY CO. ARPT   NOT AVBL
LORAIN-ELYRIA  CLEAR     63  56  78 S3        29.92F
ASHTABULA      CLEAR     60  56  86 CALM      29.91F
AKRON-CANTON   MOCLDY    65  56  72 SW6       29.95S
WOOSTER        MOCLDY    63  59  87 S3        29.95F
MANSFIELD      CLOUDY    66  60  81 SW6       29.95F
YOUNGSTOWN     MOCLDY    62  57  83 S5        29.93S
$$

OHZ042-051>053-060>062-070>072-077>081-021000-
  SOUTHWEST OHIO

CITY           SKY/WX    TMP DP  RH WIND       PRES   REMARKS
CINC-COVINGTON MOCLDY    63  61  93 CALM      29.99F
CINC-LUNKEN    MOCLDY    62  61  96 CALM      29.99F
HAMILTON       MOCLDY    62  60  93 CALM      29.99F
DAYTON         MOCLDY    65  59  81 SW8       29.99S
WRIGHT-PAT AFB PTCLDY    67  59  75 S3        29.97F
DAYTON GENERAL MOCLDY    65  58  78 CALM      29.98F
WILMINGTON     MOCLDY    66  57  72 W7        29.99S
$$

OHZ036-037-039>041-045>050-054>059-063>069-073>076-082>088-021000-
  CENTRAL AND SOUTHEAST OHIO

CITY           SKY/WX    TMP DP  RH WIND       PRES   REMARKS
COLUMBUS       MOCLDY    65  58  78 SE3       29.96F
OSU AIRPORT    PTCLDY    66  57  72 SW6       29.97S
BOLTON FIELD   PTCLDY    64  58  83 W3        29.98S
RICKENBACK AFB PTCLDY    61  58  90 S5        29.97S
NEWARK         PTCLDY    62  58  86 S3        29.96F
MARION         PTCLDY    70  56  61 SW12      29.95F
LANCASTER      PTCLDY    59  56  89 CALM      29.98S
ZANESVILLE     PTCLDY    60  57  89 CALM      29.97S
NEW PHILLY     CLOUDY    61  60  97 SE3       29.97S
$$



USA.gov is the U.S. government's official web portal to all federal, state and local government web resources and services.